Location: Summit Observatory
(39.5293°N, 75.7290°W)
Time: 10:03:59
(UTC-04:00)

Amateur Radio Satellites - All Passes

Search period start: 28 March 2017 09:33
Search period end: 29 March 2017 09:33
Location: Summit Observatory, 39.5293°N, 75.7290°W

Satellite Date Start Highest point End Downlink Frequencies (MHz)
Time Altitude Azimuth
PCSat 28 Mar 09:35:07 09:40:28 67° 115° (ESE) 09:45:52 145.827
FO-29 28 Mar 09:39:26 09:46:04 32° 65° (ENE) 09:52:19 435.910
HO-68 28 Mar 09:41:44 09:48:26 44° 294° (WNW) 09:55:08 435.675
AO-73 28 Mar 09:58:37 10:02:50 88° 275° (W) 10:06:58 145.935
DELFI C3 28 Mar 10:02:31 10:05:45 23° 95° (E) 10:08:58 145.870
TIGRISAT 28 Mar 10:23:27 10:28:08 85° 77° (ENE) 10:32:49 435.000
UWE-3 28 Mar 10:31:58 10:35:06 20° 293° (WNW) 10:38:11 435.000/436.395/437.385
UNISAT 6 28 Mar 10:34:16 10:38:56 68° 258° (WSW) 10:43:36 437.425
AAUSAT CUBESAT 2 28 Mar 10:35:55 10:38:20 15° 294° (WNW) 10:40:44 437.432
EO-79 28 Mar 10:43:49 10:45:20 12° 63° (ENE) 10:46:51 145.935-145.965
AIST 2D 28 Mar 10:45:33 10:47:50 16° 69° (ENE) 10:50:07 435.315
PRISM 28 Mar 10:48:12 10:51:15 20° 265° (W) 10:54:21 437.425
Oscar 11 28 Mar 10:57:02 11:00:29 24° 291° (WNW) 11:03:55 .
LO-87 28 Mar 11:03:37 11:05:12 12° 92° (E) 11:06:46 145.935 - 145.965
ZACube-1 28 Mar 11:09:10 11:11:20 14° 295° (WNW) 11:13:29 437.345
POLYITAN 1 28 Mar 11:10:26 11:13:49 23° 68° (ENE) 11:17:13 437.675
QB50P2 28 Mar 11:14:52 11:18:30 28° 69° (ENE) 11:22:08 145.880/145.840
SRMSAT 28 Mar 11:17:11 11:18:08 10° 176° (S) 11:19:04 437.500
PCSat 28 Mar 11:20:28 11:24:22 20° 314° (NW) 11:28:17 145.827
FO-29 28 Mar 11:23:06 11:30:44 54° 260° (W) 11:37:55 435.910
DUCHIFAT 1 28 Mar 11:24:04 11:27:37 26° 69° (ENE) 11:31:12 145.980
RS-15 28 Mar 11:28:49 11:38:36 31° 103° (ESE) 11:48:38 29.354- 29.394
BUGSAT 1 28 Mar 11:34:28 11:36:01 12° 63° (ENE) 11:37:32 437.445
DELFI C3 28 Mar 11:37:12 11:40:27 24° 290° (WNW) 11:43:40 145.870
ESTCUBE 1 28 Mar 11:57:11 12:01:12 31° 97° (E) 12:05:12 437.505/2401.250
NANOSAT C BR1 28 Mar 12:10:23 12:14:39 81° 258° (WSW) 12:18:56 145.865
EO-79 28 Mar 12:16:18 12:20:32 63° 259° (WSW) 12:24:48 145.935-145.965
AIST 2D 28 Mar 12:17:48 12:20:51 27° 264° (W) 12:23:53 435.315
LO-87 28 Mar 12:35:25 12:38:48 37° 287° (WNW) 12:42:11 145.935 - 145.965
POLYITAN 1 28 Mar 12:45:42 12:49:26 29° 263° (W) 12:53:12 437.675
QB50P2 28 Mar 12:50:45 12:54:14 24° 265° (W) 12:57:43 145.880/145.840
Oscar 19 28 Mar 12:54:31 12:58:56 30° 68° (ENE) 13:03:22 437.125/150
DUCHIFAT 1 28 Mar 12:59:43 13:03:13 25° 265° (W) 13:06:44 145.980
VELOX 1 28 Mar 13:00:48 13:05:05 45° 99° (E) 13:09:22 145.980
BUGSAT 1 28 Mar 13:06:37 13:10:49 62° 259° (W) 13:15:02 437.445
UKube-1 28 Mar 13:08:39 13:11:07 15° 93° (E) 13:13:33 .
50 SAT 28 Mar 13:20:50 13:24:14 47° 100° (E) 13:27:38 437.505
Gurwin Techsat 1B 28 Mar 13:24:49 13:29:33 34° 68° (ENE) 13:34:19 435.225
NO-84 28 Mar 13:29:03 13:32:04 43° 40° (NE) 13:35:20 435.350 FM
SPROUT 28 Mar 13:29:42 13:34:01 87° 109° (ESE) 13:38:16 437.525
ESTCUBE 1 28 Mar 13:34:14 13:37:50 24° 292° (WNW) 13:41:26 437.505/2401.250
RS-15 28 Mar 13:37:56 13:49:57 75° 304° (NW) 14:02:24 29.354- 29.394
SO-50 28 Mar 13:59:39 14:03:38 29° 113° (ESE) 14:07:36 436.795
DX 1 28 Mar 14:07:10 14:11:34 82° 286° (WNW) 14:15:57 434.975-435.025
Oscar 19 28 Mar 14:33:41 14:38:10 31° 263° (W) 14:42:41 437.125/150
VELOX 1 28 Mar 14:38:18 14:41:09 17° 295° (WNW) 14:44:01 145.980
UKube-1 28 Mar 14:43:12 14:47:21 45° 288° (WNW) 14:51:29 .
ITAMSAT 1 28 Mar 14:45:45 14:50:22 33° 68° (ENE) 14:54:59 435.822/435.867
AO-7 28 Mar 14:52:41 15:00:30 47° 63° (ENE) 15:08:18 .
Gurwin Techsat 1B 28 Mar 15:04:55 15:09:29 29° 264° (W) 15:14:05 435.225
NO-84 28 Mar 15:07:20 15:09:25 16° 233° (SW) 15:11:36 435.350 FM
MOZHAYETS 4 28 Mar 15:35:40 15:38:48 18° 93° (E) 15:41:53
BEESAT 28 Mar 15:36:39 15:41:13 45° 99° (E) 15:45:45 436.000
SO-50 28 Mar 15:39:50 15:44:00 32° 310° (NW) 15:48:09 436.795
ITUPSAT 1 28 Mar 15:54:14 15:58:59 68° 102° (ESE) 16:03:42 437.325
RS-15 28 Mar 15:54:58 16:05:01 28° 332° (NNW) 16:15:15 29.354- 29.394
ITAMSAT 1 28 Mar 16:25:16 16:29:47 29° 264° (W) 16:34:20 435.822/435.867
O/OREOS (USA 219) 28 Mar 16:33:09 16:37:25 43° 106° (ESE) 16:41:45 437.305
CUBESAT XI-V 28 Mar 16:34:38 16:36:34 12° 90° (E) 16:38:31 437.345
KKS-1 28 Mar 16:38:04 16:40:57 17° 93° (E) 16:43:50 437.445
AO-7 28 Mar 16:45:43 16:53:18 39° 261° (W) 17:00:56 .
CUTE-I 28 Mar 16:54:54 16:56:12 11° 58° (ENE) 16:57:29 437.470
STARS 28 Mar 17:08:17 17:10:53 15° 93° (E) 17:13:27 437.465
MOZHAYETS 4 28 Mar 17:11:50 17:16:06 41° 288° (WNW) 17:20:21
BEESAT 28 Mar 17:15:20 17:18:38 19° 295° (WNW) 17:21:56 436.000
XW-2D 28 Mar 17:24:17 17:26:24 14° 67° (ENE) 17:28:30 145.860 - 145.880
KAITUO 1B 28 Mar 17:26:42 17:28:03 12° 66° (ENE) 17:29:24 145.475/437.950
XW-2B 28 Mar 17:29:57 17:32:21 16° 68° (ENE) 17:34:45 145.730 - 145.750
ITUPSAT 1 28 Mar 17:34:00 17:36:13 13° 298° (WNW) 17:38:26 437.325
XW-2C 28 Mar 17:39:39 17:42:34 21° 69° (ENE) 17:45:29 145.795 - 145.815
YUBILEINY 28 Mar 17:42:30 17:49:07 23° 66° (ENE) 17:55:42 435.215
CUBESAT XI-V 28 Mar 18:09:43 18:14:19 62° 285° (WNW) 18:18:56 437.345
KKS-1 28 Mar 18:13:27 18:17:42 43° 289° (WNW) 18:21:55 437.445
O/OREOS (USA 219) 28 Mar 18:13:51 18:17:02 19° 303° (WNW) 18:20:17 437.305
RS-15 28 Mar 18:14:53 18:23:32 21° 8° (N) 18:32:05 29.354- 29.394
DOVE 4 28 Mar 18:15:21 18:20:03 83° 77° (ENE) 18:25:05 437.250
M-CUBED/EXP-1 PRIME 28 Mar 18:20:56 18:22:00 11° 94° (E) 18:23:04 437.505
HO-68 28 Mar 18:22:55 18:28:23 24° 59° (ENE) 18:33:51 435.675
PCSat 28 Mar 18:23:57 18:29:09 44° 56° (NE) 18:34:18 145.827
XW-2F 28 Mar 18:28:57 18:32:45 88° 78° (ENE) 18:36:32 145.980 - 146.000
CUTE-I 28 Mar 18:29:58 18:35:21 82° 74° (ENE) 18:40:45 437.470
LilacSat-2 28 Mar 18:34:30 18:38:19 72° 259° (W) 18:42:08 437.200
STARS 28 Mar 18:43:12 18:47:27 46° 288° (WNW) 18:51:37 437.465
NUDT-PHONESAT 28 Mar 18:47:39 18:51:22 64° 260° (W) 18:55:04 437.300
CUTE 1.7 + AOD 2 28 Mar 18:47:53 18:50:37 17° 67° (ENE) 18:53:23 437.475
CUBEBUG 2 28 Mar 18:55:38 18:57:12 12° 62° (ENE) 18:58:45 437.445
XW-2D 28 Mar 18:56:43 19:00:15 37° 262° (W) 19:03:48 145.860 - 145.880
KAITUO 1B 28 Mar 18:58:03 19:01:39 45° 261° (W) 19:05:15 145.475/437.950
XW-2B 28 Mar 19:02:51 19:06:17 32° 263° (W) 19:09:43 145.730 - 145.750
XW-2C 28 Mar 19:13:31 19:16:38 24° 264° (W) 19:19:45 145.795 - 145.815
Tancredo 1 28 Mar 19:22:24 19:24:47 20° 132° (SE) 19:27:12 437.200
ISS 28 Mar 19:32:46 19:35:24 23° 133° (SE) 19:38:04 437.550
YUBILEINY 28 Mar 19:38:04 19:46:45 73° 266° (W) 19:55:24 435.215
AO-85 28 Mar 19:42:12 19:45:06 17° 111° (ESE) 19:47:52 145.980
AAUSAT CUBESAT 2 28 Mar 19:48:44 19:52:06 25° 69° (ENE) 19:55:28 437.432
UWE-3 28 Mar 19:50:46 19:54:36 26° 69° (ENE) 19:58:25 435.000/436.395/437.385
M-CUBED/EXP-1 PRIME 28 Mar 19:52:11 19:56:52 78° 289° (WNW) 20:01:31 437.505
XW-2A 28 Mar 19:56:17 19:59:38 50° 260° (W) 20:03:00 145.665 - 145.685
STRAND 1 28 Mar 19:57:24 20:02:08 37° 98° (E) 20:06:50 437.568
PCSat 28 Mar 20:07:54 20:12:15 25° 253° (WSW) 20:16:36 145.827
HO-68 28 Mar 20:08:25 20:15:30 66° 257° (WSW) 20:22:38 435.675
SEEDS 28 Mar 20:10:29 20:14:38 83° 257° (WSW) 20:18:49 437.485
CUTE-I 28 Mar 20:14:13 20:15:58 11° 271° (W) 20:17:45 437.470
Oscar 11 28 Mar 20:15:04 20:18:13 20° 67° (ENE) 20:21:22 .
CUTE 1.7 + AOD 2 28 Mar 20:22:14 20:26:09 38° 262° (W) 20:30:06 437.475
ZACube-1 28 Mar 20:25:50 20:29:57 35° 71° (ENE) 20:34:01 437.345
CUBEBUG 2 28 Mar 20:28:24 20:33:09 78° 258° (WSW) 20:37:53 437.445
RS-15 28 Mar 20:29:21 20:40:51 42° 41° (NE) 20:51:51 29.354- 29.394
DELFI C3 28 Mar 20:48:36 20:50:18 13° 65° (ENE) 20:52:00 145.870
AO-73 28 Mar 20:52:24 20:56:52 62° 75° (ENE) 21:01:16 145.935
Tancredo 1 28 Mar 20:57:45 21:00:44 38° 328° (NNW) 21:03:44 437.200
ISS 28 Mar 21:08:41 21:11:45 36° 330° (NNW) 21:14:49 437.550
AO-85 28 Mar 21:20:58 21:25:12 44° 305° (NW) 21:29:12 145.980
AAUSAT CUBESAT 2 28 Mar 21:24:09 21:27:28 24° 265° (W) 21:30:49 437.432
UWE-3 28 Mar 21:26:50 21:30:55 30° 264° (W) 21:34:58 435.000/436.395/437.385
STRAND 1 28 Mar 21:36:59 21:41:05 25° 294° (WNW) 21:45:11 437.568
YUBILEINY 28 Mar 21:38:56 21:41:52 12° 286° (WNW) 21:44:49 435.215
Oscar 11 28 Mar 21:50:11 21:54:07 34° 263° (W) 21:58:03 .
ZACube-1 28 Mar 22:02:50 22:06:16 21° 266° (W) 22:09:40 437.345
BEESAT 3 28 Mar 22:14:04 22:17:57 73° 119° (ESE) 22:21:56 437.485
TIGRISAT 28 Mar 22:17:06 22:20:07 18° 93° (E) 22:23:04 435.000
DELFI C3 28 Mar 22:20:53 22:24:39 47° 261° (W) 22:28:28 145.870
UNISAT 6 28 Mar 22:27:32 22:31:12 25° 95° (E) 22:34:46 437.425
PRISM 28 Mar 22:29:02 22:33:08 53° 101° (E) 22:37:12 437.425
SO-50 28 Mar 22:31:38 22:35:09 22° 46° (NE) 22:38:40 436.795
AO-73 28 Mar 22:31:53 22:33:26 12° 270° (W) 22:34:59 145.935
BEESAT 2 28 Mar 22:35:22 22:39:08 45° 116° (ESE) 22:42:59 435.950
FO-29 28 Mar 22:36:00 22:40:15 21° 91° (E) 22:44:13 435.910
Tancredo 1 28 Mar 22:36:16 22:37:33 12° 347° (NNW) 22:38:49 437.200
RS-15 28 Mar 22:42:05 22:54:09 68° 246° (WSW) 23:05:38 29.354- 29.394
ISS 28 Mar 22:47:34 22:48:57 12° 348° (NNW) 22:50:21 437.550
ESTCUBE 1 28 Mar 22:55:59 22:59:40 26° 69° (ENE) 23:03:22 437.505/2401.250
LO-87 28 Mar 23:10:01 23:13:35 69° 76° (ENE) 23:17:12 145.935 - 145.965
AIST 2D 28 Mar 23:43:51 23:46:33 21° 95° (E) 23:49:15 435.315
TIGRISAT 28 Mar 23:52:54 23:56:57 36° 289° (WNW) 00:00:52 435.000
BEESAT 3 28 Mar 23:54:17 23:56:03 13° 318° (NW) 23:57:49 437.485
50 SAT 28 Mar 23:54:27 23:56:37 16° 68° (ENE) 23:58:48 437.505
NANOSAT C BR1 28 Mar 23:56:42 23:59:26 17° 93° (E) 00:02:09 145.865
VELOX 1 28 Mar 23:57:03 00:01:03 35° 70° (ENE) 00:05:06 145.980
EO-79 29 Mar 00:02:29 00:05:45 21° 94° (E) 00:09:00 145.935-145.965
UKube-1 29 Mar 00:03:19 00:05:00 12° 62° (ENE) 00:06:40 .
UNISAT 6 29 Mar 00:04:10 00:07:49 26° 292° (WNW) 00:11:25 437.425
PRISM 29 Mar 00:06:03 00:07:56 13° 296° (WNW) 00:09:49 437.425
SO-50 29 Mar 00:11:32 00:15:48 43° 244° (WSW) 00:20:02 436.795
Tancredo 1 29 Mar 00:14:16 00:14:50 10° 8° (N) 00:15:23 437.200
BEESAT 2 29 Mar 00:14:27 00:17:09 17° 314° (NW) 00:19:53 435.950
FO-29 29 Mar 00:20:06 00:25:43 47° 290° (WNW) 00:30:48 435.910
SPROUT 29 Mar 00:21:43 00:25:55 57° 74° (ENE) 00:30:10 437.525
ISS 29 Mar 00:25:30 00:26:36 11° 9° (N) 00:27:41 437.550
POLYITAN 1 29 Mar 00:30:48 00:34:53 45° 99° (E) 00:38:55 437.675
ESTCUBE 1 29 Mar 00:32:32 00:36:22 28° 264° (W) 00:40:13 437.505/2401.250
QB50P2 29 Mar 00:35:30 00:39:40 57° 100° (E) 00:43:49 145.880/145.840
DUCHIFAT 1 29 Mar 00:43:40 00:47:48 53° 100° (E) 00:51:52 145.980
BUGSAT 1 29 Mar 00:50:06 00:53:08 19° 94° (E) 00:56:08 437.445
RS-15 29 Mar 00:59:19 01:04:01 13° 266° (W) 01:08:41 29.354- 29.394
DX 1 29 Mar 01:01:21 01:05:41 76° 74° (ENE) 01:10:03 434.975-435.025
Oscar 19 29 Mar 01:09:25 01:10:29 11° 89° (E) 01:11:33 437.125/150
AIST 2D 29 Mar 01:17:05 01:19:40 20° 290° (WNW) 01:22:14 435.315
50 SAT 29 Mar 01:26:30 01:29:26 26° 263° (W) 01:32:24 437.505
NANOSAT C BR1 29 Mar 01:31:22 01:35:16 37° 289° (WNW) 01:39:08 145.865
VELOX 1 29 Mar 01:34:22 01:37:35 20° 266° (W) 01:40:50 145.980
UKube-1 29 Mar 01:36:12 01:40:28 62° 258° (WSW) 01:44:46 .
EO-79 29 Mar 01:37:50 01:41:30 29° 290° (WNW) 01:45:11 145.935-145.965
Gurwin Techsat 1B 29 Mar 01:43:17 01:45:57 14° 90° (E) 01:48:36 435.225
Tancredo 1 29 Mar 01:49:04 01:51:48 26° 27° (NNE) 01:54:33 437.200
SPROUT 29 Mar 02:00:39 02:02:10 12° 269° (W) 02:03:41 437.525
ISS 29 Mar 02:00:58 02:03:55 29° 28° (NNE) 02:06:51 437.550
POLYITAN 1 29 Mar 02:07:52 02:10:16 15° 295° (WNW) 02:12:38 437.675
QB50P2 29 Mar 02:13:11 02:14:57 12° 296° (WNW) 02:16:43 145.880/145.840
DUCHIFAT 1 29 Mar 02:21:02 02:22:59 13° 296° (WNW) 02:24:55 145.980
BUGSAT 1 29 Mar 02:24:51 02:28:32 31° 290° (WNW) 02:32:10 437.445
MOZHAYETS 4 29 Mar 02:37:07 02:40:00 17° 65° (ENE) 02:42:53
BEESAT 29 Mar 02:41:56 02:46:30 47° 71° (ENE) 02:51:05 436.000
O/OREOS (USA 219) 29 Mar 02:43:45 02:48:22 73° 68° (ENE) 02:52:57 437.305
Oscar 19 29 Mar 02:45:11 02:50:23 83° 285° (WNW) 02:55:34 437.125/150
AO-7 29 Mar 02:58:02 03:01:35 13° 89° (E) 03:05:06 .
ITUPSAT 1 29 Mar 02:59:46 03:04:32 71° 75° (ENE) 03:09:19 437.325
ITAMSAT 1 29 Mar 03:01:40 03:03:18 11° 90° (E) 03:04:54 435.822/435.867
Gurwin Techsat 1B 29 Mar 03:21:04 03:26:22 69° 287° (WNW) 03:31:39 435.225
Tancredo 1 29 Mar 03:25:00 03:27:59 36° 224° (SW) 03:30:57 437.200
KKS-1 29 Mar 03:35:49 03:38:20 15° 64° (ENE) 03:40:52 437.445
ISS 29 Mar 03:37:23 03:40:23 32° 225° (SW) 03:43:23 437.550
CUBESAT XI-V 29 Mar 03:37:57 03:39:33 12° 62° (ENE) 03:41:09 437.345
STARS 29 Mar 04:04:44 04:06:51 13° 63° (ENE) 04:08:58 437.465
MOZHAYETS 4 29 Mar 04:12:19 04:16:45 48° 261° (W) 04:21:12
AO-85 29 Mar 04:14:06 04:15:44 12° 43° (NE) 04:17:21 145.980
BEESAT 29 Mar 04:21:21 04:24:29 17° 267° (W) 04:27:38 436.000
Oscar 19 29 Mar 04:28:00 04:28:51 10° 301° (WNW) 04:29:42 437.125/150
ITAMSAT 1 29 Mar 04:38:06 04:43:19 79° 285° (WNW) 04:48:29 435.822/435.867
ITUPSAT 1 29 Mar 04:41:22 04:42:49 11° 270° (W) 04:44:17 437.325
AO-7 29 Mar 04:47:12 04:55:32 77° 107° (ESE) 05:03:50 .
KKS-1 29 Mar 05:10:05 05:14:26 52° 260° (W) 05:18:50 437.445
CUBESAT XI-V 29 Mar 05:11:44 05:16:18 71° 258° (WSW) 05:20:54 437.345
STARS 29 Mar 05:38:19 05:42:40 59° 259° (W) 05:47:04 437.465
AO-85 29 Mar 05:52:37 05:56:32 72° 241° (WSW) 06:00:36 145.980
LilacSat-2 29 Mar 06:10:20 06:11:56 12° 92° (E) 06:13:32 437.200
DOVE 4 29 Mar 06:15:29 06:19:59 28° 94° (E) 06:24:20 437.250
NUDT-PHONESAT 29 Mar 06:20:50 06:22:21 12° 92° (E) 06:23:51 437.300
NO-84 29 Mar 06:23:53 06:26:48 88° 330° (NNW) 06:29:39 435.350 FM
XW-2D 29 Mar 06:30:25 06:33:21 22° 95° (E) 06:36:17 145.860 - 145.880
KAITUO 1B 29 Mar 06:30:57 06:33:24 17° 94° (E) 06:35:51 145.475/437.950
BEESAT 3 29 Mar 06:31:52 06:35:29 31° 51° (NE) 06:39:05 437.485
XW-2B 29 Mar 06:36:17 06:39:24 24° 96° (E) 06:42:30 145.730 - 145.750
M-CUBED/EXP-1 PRIME 29 Mar 06:37:21 06:41:03 71° 254° (WSW) 06:45:07 437.505
AO-7 29 Mar 06:41:12 06:47:28 25° 305° (NW) 06:53:45 .
YUBILEINY 29 Mar 06:43:02 06:49:56 27° 82° (E) 06:56:49 435.215
XW-2C 29 Mar 06:46:21 06:49:47 33° 97° (E) 06:53:11 145.795 - 145.815
CUTE-I 29 Mar 06:48:16 06:53:08 35° 97° (E) 06:57:57 437.470
BEESAT 2 29 Mar 06:54:07 06:57:23 23° 49° (NE) 07:00:38 435.950
STRAND 1 29 Mar 07:12:10 07:17:07 49° 72° (ENE) 07:22:05 437.568
XW-2F 29 Mar 07:36:05 07:39:43 53° 285° (WNW) 07:43:20 145.980 - 146.000
HO-68 29 Mar 07:37:47 07:43:35 26° 94° (E) 07:49:20 435.675
LilacSat-2 29 Mar 07:42:52 07:46:25 40° 287° (WNW) 07:49:56 437.200
DOVE 4 29 Mar 07:52:50 07:57:38 36° 290° (WNW) 08:02:20 437.250
NUDT-PHONESAT 29 Mar 07:53:01 07:56:27 38° 287° (WNW) 07:59:51 437.300
SEEDS 29 Mar 07:56:05 07:58:51 17° 93° (E) 08:01:38 437.485
NO-84 29 Mar 08:04:07 08:04:44 10° 334° (NNW) 08:05:22 435.350 FM
KAITUO 1B 29 Mar 08:04:15 08:07:27 28° 289° (WNW) 08:10:38 145.475/437.950
XW-2D 29 Mar 08:04:29 08:07:28 23° 290° (WNW) 08:10:25 145.860 - 145.880
CUTE 1.7 + AOD 2 29 Mar 08:07:40 08:11:35 36° 97° (E) 08:15:29 437.475
BEESAT 3 29 Mar 08:09:47 08:12:55 22° 248° (WSW) 08:16:01 437.485
XW-2B 29 Mar 08:10:40 08:13:27 20° 291° (WNW) 08:16:14 145.730 - 145.750
CUBEBUG 2 29 Mar 08:21:07 08:24:33 22° 94° (E) 08:27:53 437.445
XW-2C 29 Mar 08:21:28 08:23:41 15° 293° (WNW) 08:25:54 145.795 - 145.815
CUTE-I 29 Mar 08:28:30 08:33:02 29° 294° (WNW) 08:37:34 437.470
BEESAT 2 29 Mar 08:31:33 08:35:12 33° 246° (WSW) 08:38:49 435.950
YUBILEINY 29 Mar 08:37:26 08:46:03 62° 281° (W) 08:54:41 435.215
AO-73 29 Mar 08:43:36 08:45:01 11° 90° (E) 08:46:26 145.935
FO-29 29 Mar 08:48:35 08:51:54 14° 56° (NE) 08:55:07 435.910
XW-2A 29 Mar 08:51:48 08:55:00 40° 286° (WNW) 08:58:09 145.665 - 145.685
STRAND 1 29 Mar 08:52:58 08:56:32 19° 267° (W) 09:00:07 437.568
JUGNU 29 Mar 08:55:39 08:56:18 10° 181° (S) 08:56:57 437.505
PCSat 29 Mar 09:04:31 09:09:40 47° 112° (ESE) 09:14:52 145.827
AAUSAT CUBESAT 2 29 Mar 09:06:02 09:10:06 52° 100° (E) 09:14:09 437.432
TIGRISAT 29 Mar 09:15:01 09:17:57 17° 65° (ENE) 09:20:54 435.000
UWE-3 29 Mar 09:16:53 09:21:06 59° 100° (E) 09:25:13 435.000/436.395/437.385
PRISM 29 Mar 09:17:26 09:21:05 33° 71° (ENE) 09:24:45 437.425
UNISAT 6 29 Mar 09:25:19 09:28:57 23° 68° (ENE) 09:32:34 437.425
